Flag Weather past 2 weeks in Male, Maldives

Now
84 °F

Overcast.


Feels Like: 92 °F
Forecast: 78 / 85 °F
Wind: No wind

Location: Male Airport

Current Time: Nov 27, 2014 at 4:55:30 PM

Latest Report: Nov 27, 2014 at 4:00 PM


Visibility: 6 mi

Pressure: 29.74 "Hg

Humidity: 74%

Dew point: 75 °F

Location of MaleLocation

Historic Weather in Male — Graph

°F

Male temperature yesterday

Maximum temperature yesterday: 84 °F (at 10:00 AM)
Minimum temperature yesterday: 81 °F (at 1:00 AM)
Average temperature yesterday: 83 °F

Past Weeks' High & Low Weather Summary

 TemperatureHumidityPressure
High88 °F (Nov 13, 11:00 AM)100% (Nov 22, 3:00 PM)29.92 "Hg (Nov 22, 3:00 PM)
Low77 °F (Nov 18, 3:00 AM)62% (Nov 14, 11:00 AM)29.71 "Hg (Nov 26, 3:00 PM)
Average82 °F82%29.83 "Hg
* Reported Nov 12 3:00 PM — Nov 27 3:00 PM, Male, Weather by CustomWeather, © 2014

Note: Actual official high and low records may vary slightly from our data, if they occured in-between our weather recording intervals... More about our weather records

Advertising

Male weather history for previous 24 hours

 ConditionsComfort  
Time TempWeatherWind HumidityBarometerVisibility
3:00 PM
Nov 27
84 °FOvercast.3 mph74%29.74 "Hg6 mi
2:00 PM84 °FMore clouds than sun.5 mph74%29.74 "Hg6 mi
1:00 PM84 °FOvercast.3 mph74%29.77 "Hg5 mi
12:00 PM84 °FOvercast.3 mph74%29.80 "Hg5 mi
11:00 AM82 °FOvercast.5 mph84%29.83 "Hg5 mi
10:00 AM82 °FOvercast.5 mph84%29.83 "Hg5 mi
9:00 AM81 °FLight rain. Overcast.5 mph89%29.86 "Hg4 mi
8:00 AM81 °FOvercast.5 mph89%29.83 "Hg5 mi
7:00 AM81 °FOvercast.6 mph84%29.80 "Hg6 mi
6:00 AM79 °FOvercast.5 mph94%29.77 "Hg6 mi
5:00 AM79 °FLight rain. Overcast.6 mph89%29.77 "Hg6 mi
4:00 AM79 °FLight rain. Overcast.5 mph89%29.74 "Hg6 mi
3:00 AM79 °FLight rain. Overcast.6 mph94%29.74 "Hg5 mi
2:00 AM79 °FLight rain. Overcast.3 mph94%29.74 "Hg5 mi
1:00 AM79 °FLight rain. Overcast.3 mph89%29.77 "Hg5 mi
12:00 AM79 °FLight rain. Overcast.3 mph89%29.80 "Hg4 mi
10:00 PM
Nov 26
82 °FPartly cloudy.7 mph84%29.83 "HgN/A
9:00 PM82 °FPassing clouds.2 mph84%29.83 "HgN/A
8:00 PM82 °FPassing clouds.1 mph84%29.80 "HgN/A
7:00 PM82 °FPassing clouds.3 mph84%29.77 "HgN/A
6:00 PM82 °FPassing clouds.6 mph84%29.77 "HgN/A
5:00 PM84 °FBroken clouds.6 mph74%29.74 "HgN/A
4:00 PM84 °FBroken clouds.1 mph74%29.71 "HgN/A
Weather by CustomWeather, © 2014

See weather overviewHow to use our weather pages